Погода в Кинделях

Россия / Оренбургская область     51°37′24″N   52°59′24″E
темп.,
°C
ветер,
м/с
пор.,
м/с
влажн.,
%
обл.,
%
осадки,
мм/ч
давл.,
гПа
погр.,
м
5 августа, чт
чт523:00+29з342099 0.0 100942
02:00+26ссз3337100 0.0 100939
05:00+25сз5105781 0.0 1011296
08:00+26сз61250100 0.0 1011547
11:00+31сз673792 0.0 1010834
14:00+33сз6631100 0.0 10101964
17:00+33зсз66271 0.0 10102216
20:00+30сз7828100 0.0 10101299
6 августа, пт
пт623:00+25ссз41132100 0.0 1011275
02:00+22ссз4943100 0.0 1012234
05:00+19ссз4850100 0.0 1013160
08:00+21с58490 0.0 1014328
11:00+27ссв673422 0.0 10142012
14:00+30с5624100 0.0 10132557
17:00+31с66200 0.0 10122733
20:00+29с67217 0.0 1013791
7 августа, сб
сб723:00+22ссв453325 0.0 101369
02:00+20ссв334691 0.0 101444
05:00+18всв334954 0.0 101538
08:00+21в34425 0.0 1016202
11:00+27ссв34255 0.0 10161466
14:00+31ссв55172 0.0 10151937
17:00+32св66185 0.0 10142177
20:00+29св57233 0.0 1015608
8 августа, вс
вс823:00+24св47345 0.0 1016101
02:00+21св484344 0.0 1017141
05:00+20всв3646100 0.0 1017115
08:00+22всв46385 0.0 1018259
11:00+28св572770 0.0 10181081
14:00+32св57235 0.0 10171799
17:00+33св672213 0.0 10162060
20:00+31св5827100 0.0 1016598
9 августа, пн
пн923:00+25св4837100 0.0 1017127
02:00+22всв3936100 0.0 1018176
05:00+21в3434100 0.0 101979
08:00+23в583074 0.0 1018339
11:00+28в6723100 0.0 10181013
14:00+33всв551861 0.0 10171630
17:00+34всв441716 0.0 10152078
20:00+31в4619100 0.0 1015214